Terminal Aerodrome Forecast
Issued by NWS

Home | Current Version | Previous Version | Text Only | Print | Product List | Glossary Off
Versions: 1 2 3 4 5 6 7 8 9 10 11 12 13 14 15

000
FTUS43 KABR 270500
TAFMBG
TAF
KMBG 270540Z 2706/2806 31008KT P6SM SKC
     FM271500 34015G25KT P6SM BKN050
     FM280200 34007KT P6SM SKC=

USA.gov is the U.S. government's official web portal to all federal, state and local government web resources and services.